ARIANE 1 DEB *

Satellite information

Favourite Embed

Satellite Type and Status

DEBRISIN ORBIT

Key statistics

Satellite ARIANE 1 DEB * at a glance.

Uptime

14382

Days in orbit

Revolutions

≈ 14.5

Per day

Orbit

SSO

Sun Synchronous Orbit

Inclination

98.0

Latest

Satellite identification and parameters

Extended collection of information and parameters for ARIANE 1 DEB *.

Object identification

Identified? True

Debris? True

Object name: ARIANE 1 DEB *

International designator: 1986-019RY

Object number (NORAD): 18290

Object ID (CCSDS): 18290

Country: FRANCE (FR)

Current information (Y/N): Y

RCS size: SMALL

Orbital parameters

Period: 99.579 minutes

Inclination: 97.9642 deg

SMA: 7116.57 km

Apoapsis: 803.668 km

Periapsis: 673.203 km

RAAN: 113.8922 deg

Eccentricy: 0.0091663

Argument of periapsis: 37.7183 deg

Mean anomaly: 323.0389 deg

Mean motion: 14.46094402 rev/day

Mean motion (dot): 0.00000328 rev/day2

B* drag term: 0.00009876 1/REarth

Two-line elements (TLE)

Creation date: July 9, 2025, 2:22 a.m.

Reference frame: TEME

Reference center: EARTH

Epoch: July 8, 2025, 6:12 p.m. UTC

TLE line 0: 0 ARIANE 1 DEB *

TLE line 1: 1 18290U 86019RY 25189.75895866 .00000328 00000-0 98760-4 0 9990

TLE line 2: 2 18290 97.9642 113.8922 0091663 37.7183 323.0389 14.46094402 97287

Live tracking on map

Real-time ground track for satellite ARIANE 1 DEB *.

In-orbit conjunctions

A list of the most updated potential collisions computed for object ARIANE 1 DEB *.

Target Orbit TCA Probability of collision Miss distance Type
FENGYUN 1C DEB SSO 2025-03-28 14:53:23 0.0002793175 109.0 (m) DEBRIS
COSMOS 2251 DEB LEO 2025-01-20 00:51:07 0.0003692861 55.0 (m) DEBRIS
SL-8 R/B LEO 2024-05-30 00:10:15 0.000466663 335.0 (m) ROCKET BODY

Associated space launch

SPOT 1 is a French Earth observation satellite. Viking is Sweden's first satellite.

ARIANE 1 DEB * was lifted into orbit during the mission ‘Ariane 1 | SPOT 1 & Viking’, on board a Ariane 1 space rocket.

The launch took place on Feb. 22, 1986, 1:44 a.m. from Ariane Launch Area 1 (ELV).

For more information about the launch, click the button.

Launch to space Ariane 1 | SPOT 1 & Viking
Ariane 1 | SPOT 1 & Viking

Agency: N/A

Status: Launch Successful

Launch date: Feb. 22, 1986, 1:44 a.m. UTC

Rocket: Ariane 1

Launch pad: Ariane Launch Area 1 (ELV)

Location: Guiana Space Centre, French Guiana

...

Latest news about this satellite

There are no fresh news available about this satellite. Check back as we update our databases every day.


Newsletter sign-up

Weekly statistics, charts and insights to help you stay on top of the space industry.